When you browse on this site, cookies collect data to enhance your experience and personalize the content and advertising you see.
Visit our Privacy Policy to learn more. By continuing to use the site, you agree to this use of cookies and data.
  • In Portugal
  • List of Countries
  • For 7 days
  • Water Temperature
  • Weather Map
  • Weather Widgets
  • user-avatar
    Login

    Hourly Weather Dalniy

    Today, 6 June, Saturday

    Time Temperature Precipitation Wind Pressure Humidity
    00:00 +11°C° 0 mm 1 mps 753 mmHg 77%
    01:00 +11°C° 0 mm 1 mps 753 mmHg 78%
    02:00 +11°C° 0 mm 1 mps 753 mmHg 79%
    03:00 +11°C° 0 mm 1 mps 753 mmHg 80%
    04:00 +11°C° 0 mm 1 mps 753 mmHg 82%
    05:00 +13°C° 0 mm 1 mps 753 mmHg 75%
    06:00 +15°C° 0 mm 1 mps 753 mmHg 68%
    07:00 +18°C° 0 mm 1 mps 753 mmHg 61%
    08:00 +19°C° 0 mm 2 mps 753 mmHg 55%
    09:00 +21°C° 0 mm 2 mps 753 mmHg 48%
    10:00 +24°C° 0 mm 2 mps 753 mmHg 41%
    11:00 +24°C° 0 mm 2 mps 753 mmHg 39%
    12:00 +25°C° 0 mm 2 mps 753 mmHg 38%
    13:00 +25°C° 0 mm 2 mps 752 mmHg 36%
    14:00 +25°C° 0 mm 2 mps 752 mmHg 36%
    15:00 +25°C° 0 mm 3 mps 752 mmHg 36%
    16:00 +25°C° 0 mm 3 mps 752 mmHg 37%
    17:00 +24°C° 0 mm 3 mps 752 mmHg 44%
    18:00 +21°C° 0 mm 2 mps 752 mmHg 51%
    19:00 +20°C° 0 mm 2 mps 751 mmHg 58%
    20:00 +18°C° 0 mm 2 mps 752 mmHg 64%
    21:00 +16°C° 0 mm 2 mps 752 mmHg 69%
    22:00 +14°C° 0 mm 2 mps 752 mmHg 74%
    23:00 +14°C° 0 mm 2 mps 752 mmHg 75%

    Tomorrow, 7 June, Sunday

    Time Temperature Precipitation Wind Pressure Humidity
    00:00 +13°C° 0 mm 2 mps 752 mmHg 75%
    01:00 +13°C° 0 mm 2 mps 752 mmHg 76%
    02:00 +12°C° 0 mm 2 mps 752 mmHg 75%
    03:00 +12°C° 0 mm 2 mps 753 mmHg 75%
    04:00 +12°C° 0 mm 2 mps 753 mmHg 75%
    05:00 +14°C° 0 mm 2 mps 753 mmHg 68%
    06:00 +16°C° 0 mm 2 mps 753 mmHg 62%
    07:00 +19°C° 0 mm 2 mps 753 mmHg 55%
    08:00 +21°C° 0 mm 2 mps 753 mmHg 48%
    09:00 +24°C° 0 mm 2 mps 753 mmHg 41%
    10:00 +26°C° 0 mm 2 mps 753 mmHg 33%
    11:00 +26°C° 0 mm 3 mps 753 mmHg 31%
    12:00 +27°C° 0 mm 3 mps 753 mmHg 30%
    13:00 +28°C° 0 mm 3 mps 752 mmHg 28%
    14:00 +28°C° 0 mm 3 mps 752 mmHg 29%
    15:00 +28°C° 0 mm 3 mps 752 mmHg 30%
    16:00 +27°C° 0 mm 3 mps 752 mmHg 31%
    17:00 +26°C° 0 mm 3 mps 752 mmHg 39%
    18:00 +24°C° 0 mm 2 mps 752 mmHg 48%
    19:00 +23°C° 0 mm 2 mps 751 mmHg 56%
    20:00 +20°C° 0 mm 2 mps 752 mmHg 60%
    21:00 +18°C° 0 mm 2 mps 752 mmHg 64%
    22:00 +16°C° 0 mm 2 mps 752 mmHg 68%
    23:00 +16°C° 0 mm 2 mps 752 mmHg 69%

    Day after tomorrow, 8 June, Monday

    Time Temperature Precipitation Wind Pressure Humidity
    00:00 +15°C° 0 mm 2 mps 752 mmHg 69%
    01:00 +14°C° 0 mm 2 mps 752 mmHg 70%
    02:00 +14°C° 0 mm 2 mps 752 mmHg 73%
    03:00 +14°C° 0 mm 1 mps 753 mmHg 76%
    04:00 +14°C° 0 mm 1 mps 753 mmHg 79%
    05:00 +18°C° 0 mm 1 mps 753 mmHg 72%
    06:00 +20°C° 0 mm 1 mps 753 mmHg 64%
    07:00 +23°C° 0 mm 1 mps 753 mmHg 57%
    08:00 +24°C° 0 mm 1 mps 753 mmHg 51%
    09:00 +26°C° 0 mm 1 mps 753 mmHg 45%
    10:00 +28°C° 0 mm 1 mps 754 mmHg 38%
    11:00 +29°C° 0 mm 1 mps 753 mmHg 36%
    12:00 +29°C° 0 mm 1 mps 753 mmHg 33%
    13:00 +30°C° 0 mm 1 mps 753 mmHg 31%
    14:00 +30°C° 0 mm 1 mps 753 mmHg 31%
    15:00 +30°C° 0 mm 2 mps 753 mmHg 32%
    16:00 +30°C° 0 mm 2 mps 753 mmHg 32%
    17:00 +28°C° 0 mm 1 mps 753 mmHg 40%
    18:00 +27°C° 0 mm 1 mps 753 mmHg 47%
    19:00 +25°C° 0 mm 1 mps 752 mmHg 54%
    20:00 +23°C° 0 mm 1 mps 753 mmHg 57%
    21:00 +22°C° 0 mm 1 mps 753 mmHg 60%
    22:00 +20°C° 0 mm 1 mps 753 mmHg 62%
    23:00 +19°C° 0 mm 1 mps 753 mmHg 64%

    9 June, Tuesday

    Time Temperature Precipitation Wind Pressure Humidity
    00:00 +19°C° 0 mm 1 mps 753 mmHg 65%
    01:00 +17°C° 0 mm 2 mps 754 mmHg 67%
    02:00 +17°C° 0 mm 2 mps 754 mmHg 71%
    03:00 +16°C° 0 mm 2 mps 754 mmHg 75%
    04:00 +16°C° 0 mm 2 mps 754 mmHg 79%
    05:00 +18°C° 0 mm 2 mps 754 mmHg 73%
    06:00 +20°C° 0 mm 2 mps 755 mmHg 67%
    07:00 +23°C° 0 mm 2 mps 755 mmHg 62%
    08:00 +25°C° 0 mm 2 mps 755 mmHg 55%
    09:00 +27°C° 0 mm 2 mps 755 mmHg 49%
    10:00 +29°C° 0 mm 2 mps 755 mmHg 42%
    11:00 +29°C° 0 mm 2 mps 755 mmHg 41%
    12:00 +29°C° 0 mm 2 mps 755 mmHg 39%
    13:00 +30°C° 0 mm 2 mps 755 mmHg 37%
    14:00 +30°C° 0 mm 2 mps 754 mmHg 38%
    15:00 +30°C° 0 mm 2 mps 754 mmHg 39%
    16:00 +30°C° 0 mm 2 mps 754 mmHg 41%
    17:00 +28°C° 0 mm 2 mps 754 mmHg 46%
    18:00 +27°C° 0 mm 1 mps 754 mmHg 52%
    19:00 +26°C° 0 mm 1 mps 754 mmHg 58%
    20:00 +24°C° 0 mm 1 mps 754 mmHg 59%
    21:00 +23°C° 0 mm 1 mps 754 mmHg 60%
    22:00 +21°C° 0 mm 1 mps 754 mmHg 61%
    23:00 +21°C° 0 mm 1 mps 754 mmHg 63%

    10 June, Wednesday

    Time Temperature Precipitation Wind Pressure Humidity
    00:00 +20°C° 0 mm 1 mps 754 mmHg 65%
    01:00 +20°C° 0 mm 1 mps 754 mmHg 68%
    02:00 +18°C° 0 mm 2 mps 754 mmHg 69%
    03:00 +18°C° 0 mm 2 mps 754 mmHg 71%
    04:00 +17°C° 0 mm 2 mps 755 mmHg 72%
    05:00 +19°C° 0 mm 2 mps 755 mmHg 67%
    06:00 +21°C° 0 mm 2 mps 755 mmHg 62%
    07:00 +24°C° 0 mm 2 mps 755 mmHg 57%
    08:00 +25°C° 0 mm 2 mps 754 mmHg 50%
    09:00 +27°C° 0 mm 2 mps 754 mmHg 43%
    10:00 +29°C° 0 mm 3 mps 754 mmHg 36%
    11:00 +29°C° 0 mm 3 mps 754 mmHg 35%
    12:00 +30°C° 0 mm 3 mps 754 mmHg 34%
    13:00 +30°C° 0 mm 3 mps 754 mmHg 33%
    14:00 +30°C° 0 mm 3 mps 754 mmHg 34%
    15:00 +30°C° 0 mm 3 mps 753 mmHg 35%
    16:00 +30°C° 0 mm 3 mps 753 mmHg 35%
    17:00 +29°C° 0 mm 2 mps 753 mmHg 43%
    18:00 +28°C° 0 mm 2 mps 753 mmHg 50%
    19:00 +26°C° 0 mm 1 mps 752 mmHg 57%
    20:00 +25°C° 0 mm 2 mps 752 mmHg 60%
    21:00 +23°C° 0 mm 2 mps 753 mmHg 63%
    22:00 +20°C° 0 mm 2 mps 753 mmHg 66%
    23:00 +20°C° 0 mm 2 mps 753 mmHg 68%

    11 June, Thursday

    Time Temperature Precipitation Wind Pressure Humidity
    00:00 +19°C° 0 mm 2 mps 753 mmHg 69%
    01:00 +19°C° 0 mm 2 mps 753 mmHg 71%
    02:00 +18°C° 0 mm 2 mps 752 mmHg 73%
    03:00 +18°C° 0 mm 2 mps 752 mmHg 75%
    04:00 +18°C° 0 mm 2 mps 752 mmHg 76%
    05:00 +20°C° 0 mm 2 mps 752 mmHg 71%
    06:00 +23°C° 0 mm 2 mps 752 mmHg 65%
    07:00 +24°C° 0 mm 2 mps 752 mmHg 59%
    08:00 +26°C° 0 mm 2 mps 752 mmHg 51%
    09:00 +28°C° 0 mm 2 mps 752 mmHg 44%
    10:00 +30°C° 0 mm 3 mps 751 mmHg 36%
    11:00 +30°C° 0 mm 3 mps 751 mmHg 35%
    12:00 +31°C° 0 mm 3 mps 751 mmHg 33%
    13:00 +31°C° 0 mm 3 mps 750 mmHg 32%
    14:00 +31°C° 0 mm 3 mps 750 mmHg 32%
    15:00 +31°C° 0 mm 3 mps 749 mmHg 32%
    16:00 +31°C° 0 mm 3 mps 749 mmHg 33%
    17:00 +28°C° 0.2 mm 3 mps 748 mmHg 48%
    18:00 +25°C° 0.2 mm 3 mps 748 mmHg 64%
    19:00 +20°C° 0.2 mm 2 mps 748 mmHg 80%
    20:00 +20°C° 0.1 mm 2 mps 747 mmHg 80%
    21:00 +19°C° 0.1 mm 2 mps 747 mmHg 81%
    22:00 +18°C° 0.1 mm 2 mps 747 mmHg 81%
    23:00 +18°C° 0.4 mm 2 mps 746 mmHg 85%
    Show more